Regional Weather Roundup
Issued by NWS

Home | Current Version | Previous Version | Graphics & Text | Print | Product List | Glossary Off
Versions: 1 2 3 4 5 6 7 8 9 10 11 12 13 14 15 16 17 18 19 20 21 22 23 24 25 26 27 28 29 30 31 32 33 34 35 36 37 38 39 40 41 42 43 44 45 46 47 48 49 50

000
ASUS43 KTOP 230208
RWRKS

WEATHER ROUNDUP FOR KANSAS
NATIONAL WEATHER SERVICE GOODLAND KS
900 PM CDT WED MAR 22 2017

NOTE:  "FAIR" INDICATES FEW OR NO CLOUDS BELOW 12,000 FEET WITH NO
SIGNIFICANT WEATHER AND/OR OBSTRUCTIONS TO VISIBILITY.

KSZ001>006-013>018-027>032-041>047-230300-
NORTHWEST KANSAS

CITY           SKY/WX    TMP DP  RH WIND       PRES   REMARKS
GOODLAND       CLOUDY    50  37  61 SE14      29.93R
HAYS             N/A     51  35  54 SE13      30.06S
HILL CITY      CLOUDY    50  36  58 SE10      30.04R
RUSSELL        CLOUDY    51  34  52 SE12      30.05S
$$

KSZ061>065-074>080-084>089-230300-
SOUTHWEST KANSAS

CITY           SKY/WX    TMP DP  RH WIND       PRES   REMARKS
DODGE CITY     CLOUDY    50  39  66 SE16      30.01F
ELKHART          N/A     58  41  53 SE12        N/A
GARDEN CITY    CLOUDY    54  38  54 SE16      29.98S
GREAT BEND     MOCLDY    50  36  58 SE9       30.07R
LIBERAL        CLEAR     61  41  48 SE13      29.98S
PRATT          CLOUDY    47  37  68 E5        30.05S
$$

KSZ066>073-081>083-090>101-230300-
SOUTHEAST KANSAS

CITY           SKY/WX    TMP DP  RH WIND       PRES   REMARKS
CHANUTE        CLOUDY    56  34  43 E13       30.15F
COFFEYVILLE    CLOUDY    56  40  55 E10       30.14F
HUTCHINSON     PTCLDY    53  35  50 E9        30.07F
MEDICINE LODGE   N/A     51  41  68 E7        30.03F
NEWTON         CLOUDY    53  34  48 SE13G20   30.10F
PARSONS        CLOUDY    56  38  50 E8        30.16S
WICHITA INTL   PTCLDY    53  40  61 E14       30.08S
WICHITA JABRA  CLOUDY    53  39  59 E12       30.09F
WICHITA MCCONL CLOUDY    54  38  54 SE14      30.08F
WINFIELD       CLEAR     55  42  61 E8        30.10S
$$

KSZ007>012-019>026-033>040-048>060-102>105-230300-
NORTHEAST KANSAS

CITY           SKY/WX    TMP DP  RH WIND       PRES   REMARKS
CONCORDIA      CLOUDY    52  29  41 SE14      30.09F
EMPORIA        CLOUDY    55  33  43 SE10      30.13F
LAWRENCE       CLOUDY    53  28  38 E17G26    30.18F
MANHATTAN      CLOUDY    55  28  35 E10       30.12F
MARYSVILLE     CLOUDY    52  30  43 SE12G20   30.12F
OLATHE IND     CLOUDY    52  28  39 E16G26    30.19S
OLATHE EXE     CLOUDY    51  28  41 E17G25    30.19F
SALINA         CLOUDY    57  33  40 SE17      30.09F
TOPEKA BILLARD CLOUDY    54  31  41 E12       30.16F
TOPEKA FORBES  CLOUDY    55  31  39 E12       30.16F
$$



USA.gov is the U.S. government's official web portal to all federal, state and local government web resources and services.